Location: Altenhof
(50.2418°N, 10.8789°E)
Time: 11:44:37
(UTC+00:00)

STARLINK-1159 - Pass Details

Date: 18 February 2020
Orbit: 553 x 555 km, 53.0° (Epoch: 09 April)

Event Time Altitude Azimuth Distance (km) Brightness Sun altitude
Exits shadow 03:50:53 53° 32° (NNE) 669 4.2 -24.9°
Drops below altitude 10° 03:54:22 10° 74° (ENE) 1,804 7.3 -24.4°
Enters shadow 04:50:55 -70° 273° (W) 12,558 10.4 -15.4°
Maximum altitude 05:30:08 70° 14° (NNE) 578 3.7 -9.1°
